Regional Weather Roundup
Issued by NWS

Home | Current Version | Previous Version | Graphics & Text | Print | Product List | Glossary On
Versions: 1 2 3 4 5 6 7 8 9 10 11 12 13 14 15 16 17 18 19 20 21 22 23 24 25 26 27 28 29 30 31 32 33 34 35 36 37 38 39 40 41 42 43 44 45 46 47 48 49 50
000
ASUS43 KIND 040459
RWRIN

WEATHER ROUNDUP FOR INDIANA
NATIONAL WEATHER SERVICE INDIANAPOLIS IN
100 AM EDT TUE AUG 04 2015

NOTE: "FAIR" INDICATES FEW OR NO CLOUDS BELOW 12,000 FEET WITH NO
SIGNIFICANT WEATHER AND/OR OBSTRUCTIONS TO VISIBILITY.

* - STATION DOES NOT REPORT WEATHER SUCH AS PRECIPITATION OR FOG.

+ - STATION NOT QUALITY CONTROLLED BY THE NATIONAL WEATHER SERVICE.
    USE DATA WITH CAUTION...ESPECIALLY DEWPOINT AND RELATIVE
    HUMIDITY OBSERVATIONS.

INZ001>003-010>013-019-020-040600-
NORTHWEST INDIANA

CITY           SKY/WX    TMP DP  RH WIND       PRES   REMARKS
KNOX *+        CLEAR     59  59 100 CALM      29.92S
MONTICELLO +   CLEAR     61  59  92 CALM      29.93S
RENSSELAER +   CLEAR     61  59  94 CALM      29.94S

$$

LMZ046-743>745-040600-
SOUTHERN LAKE MICHIGAN

STATION/POSITION TIME  TEMP    WIND        PRES    WAVE
                       AIR SEA DIR/SP/G            HT
                 (UTC) (F)     (DEG/KT/KT) (MB)    (FT)
BURNS HARBOR     0400   69     180/  5/  7 1013.2S
MICHIGAN CITY    0400   70     160/  6/  8   N/A
5NW MICH CITY    0400   72 74  210/  8/ 10   N/A     1

$$

INZ004-005-014>016-021>024-040600-
NORTH CENTRAL INDIANA

CITY           SKY/WX    TMP DP  RH WIND       PRES   REMARKS
GOSHEN         CLEAR     60  56  86 S3        29.91S
SOUTH BEND     CLEAR     63  55  75 SW5       29.92S
WARSAW +       CLEAR     61  57  88 CALM      29.92S

$$

INZ006>009-017-018-025>027-040600-
NORTHEAST INDIANA

CITY           SKY/WX    TMP DP  RH WIND       PRES   REMARKS
ANGOLA *+      CLEAR     57  55  94 CALM      29.91S
FORT WAYNE     CLEAR     61  56  83 CALM      29.93R

$$

INZ028-029-035-036-043>045-051>053-040600-
WEST CENTRAL INDIANA

CITY           SKY/WX    TMP DP  RH WIND       PRES   REMARKS
CRAWFORDSVL +  CLEAR     61  60  97 CALM        N/A
GREENCASTLE +  CLEAR     70  59  68 N5        29.95
LAFAYETTE      CLEAR     61  57  87 CALM      29.94R
TERRE HAUTE    PTCLDY    68  63  84 CALM      29.94R

$$

INZ030>032-037>040-046>048-054>057-064-065-040600-
CENTRAL INDIANA

CITY           SKY/WX    TMP DP  RH WIND       PRES   REMARKS
FRANKFORT +    CLEAR    N/A N/A N/A CALM      29.96S
INDIANAPOLIS   PTCLDY    70  59  68 NW7       29.93R
-EAGLE CREEK   CLEAR     71  60  68 NW5       29.94R
KOKOMO *+      CLEAR     61  55  82 W3        29.94R
MT COMFORT *+  CLEAR     66  61  82 N5        29.94S
SHELBYVILLE    CLEAR     69  62  78 NW3       29.93R

$$

INZ033-034-041-042-049-050-058-059-040600-
EAST CENTRAL INDIANA

CITY           SKY/WX    TMP DP  RH WIND       PRES   REMARKS
MUNCIE         CLEAR     64  59  83 CALM      29.94R

$$

INZ060-061-067>069-081>083-085>088-040600-
SOUTHWEST INDIANA

CITY           SKY/WX    TMP DP  RH WIND       PRES   REMARKS
EVANSVILLE     CLEAR     80  68  66 NW5       29.93S
HUNTINGBURG *+ CLEAR     75  68  78 NW5       29.93S

$$

INZ062-063-066-070>080-084-089>092-040600-
SOUTH CENTRAL AND SOUTHEAST INDIANA

CITY           SKY/WX    TMP DP  RH WIND       PRES   REMARKS
BLOOMINGTON    CLEAR     70  65  84 CALM      29.94R
MADISON *+     CLEAR     72  68  88 CALM      29.95R
SEYMOUR +      CLEAR     72  66  83 W5        29.93R

$$



USA.gov is the U.S. government's official web portal to all federal, state and local government web resources and services.